Date,TemperatureHighF,TemperatureAvgF,TemperatureLowF,DewpointHighF,DewpointAvgF,DewpointLowF,HumidityHigh,HumidityAvg,HumidityLow,PressureMaxIn,PressureMinIn,WindSpeedMaxMPH,WindSpeedAvgMPH,GustSpeedMaxMPH,PrecipitationSumIn
2013-4-1,47,42,29,44,31,16,92,68,39,30.02,29.71,24,6,24,0.02
2013-4-2,42,33,24,20,17,14,73,54,36,30.21,30.02,22,5,22,0.00
2013-4-3,43,31,20,23,17,11,88,58,32,30.41,30.20,25,4,28,0.00
2013-4-4,57,36,16,26,18,12,90,55,23,30.41,29.98,9,1,9,0.00
2013-4-5,57,43,26,35,27,22,90,56,33,30.16,29.93,22,3,22,0.00
2013-4-6,62,43,21,27,20,13,92,48,16,30.28,30.00,13,1,13,0.00
2013-4-7,73,62,52,53,41,25,75,48,34,30.01,29.85,24,4,24,0.00
2013-4-8,75,62,44,54,49,43,97,65,40,30.01,29.86,21,2,21,0.00
2013-4-9,82,70,56,61,55,50,84,60,42,30.06,29.86,18,2,18,0.00
2013-4-10,84,74,60,63,58,52,94,59,43,29.91,29.73,25,4,33,0.11
2013-4-11,77,66,51,62,58,50,99,78,55,29.83,29.52,19,1,19,0.01
2013-4-12,72,59,46,60,51,37,96,76,50,29.82,29.45,19,5,28,0.44
2013-4-13,58,47,36,40,35,31,87,65,44,30.01,29.82,27,5,27,0.00
2013-4-14,63,48,29,41,36,28,96,65,40,30.16,29.98,9,1,10,0.00
2013-4-15,66,61,50,52,47,39,76,62,52,30.08,29.95,18,2,18,0.00
2013-4-16,81,66,51,63,56,47,96,72,51,30.16,29.98,20,2,22,0.33
2013-4-17,66,59,54,59,56,53,98,91,75,30.20,30.06,8,1,8,0.01
2013-4-18,85,72,52,66,59,51,98,67,41,30.07,29.73,20,3,20,0.00
2013-4-19,72,61,45,62,51,34,90,71,57,29.84,29.43,24,5,25,0.10
2013-4-20,45,40,37,35,32,30,83,73,65,30.09,29.83,22,7,23,0.01
2013-4-21,55,44,25,32,26,22,96,53,30,30.59,30.39,14,2,14,0.00
2013-4-22,63,50,37,37,30,21,77,47,23,30.45,30.25,16,2,16,0.00
2013-4-23,72,54,31,45,37,29,94,56,30,30.26,29.94,9,1,9,0.00
2013-4-24,73,62,55,57,48,40,93,61,52,29.94,29.70,38,2,38,0.23
2013-4-25,58,46,32,39,34,30,97,68,38,30.34,30.14,9,3,21,0.02
2013-4-26,61,49,35,40,36,33,97,66,37,30.46,30.34,3,1,11,0.00
2013-4-27,75,54,31,45,37,30,98,61,25,30.38,30.13,3,1,11,0.00
2013-4-28,62,57,50,55,50,42,93,79,49,30.13,29.93,15,2,15,0.17
2013-4-29,66,60,56,59,55,49,95,85,73,29.99,29.91,11,1,11,0.31
2013-4-30,74,60,46,59,53,46,99,80,53,30.15,29.99,16,2,18,0.00